[[{"header":{"parameterUnit":"m.s-1","parameterCategory":1,"la1":30.2991,"la2":30.254,"lo1":-89.0895,"lo2":-89.0444,"dy":0.0017,"dx":0.0017,"nx":28,"ny":28,"refTime":"2023-10-05T09:00:00:Z","depth":0,"parameterNumber":2,"parameterNumberName":"U-component_of_WINDS"},"data":[0,0,0,0,0,0,0,0,0,0,0,0,0,0,0,0,0,0,0,0,0,0,0,0,0,0,0,0,0,0,0,0,0,0,0,0,0,0,0,0,0,0,0,0,0,0,0,0,0,0,0,0,0,0,0,0,0,0,-4.7983,-4.7987,0,-4.8404,-4.8408,-4.8413,-4.8495,-4.8491,-4.8488,-4.8485,-4.8922,-4.8936,-4.8951,0,0,0,0,0,0,0,0,0,0,0,0,0,-4.7254,-4.7267,-4.7982,-4.7988,-4.7993,-4.8403,-4.8409,-4.8414,-4.8495,-4.8491,-4.8487,-4.8483,-4.8917,-4.8934,-4.8952,0,0,0,0,0,0,0,0,0,0,0,0,0,-4.7612,-4.7271,-4.7981,-4.8082,-4.8096,-4.8402,-4.8409,-4.8416,-4.8496,-4.8491,-4.8486,-4.8481,-4.8911,-4.8932,-4.8954,-4.9191,0,0,-4.9022,-4.9031,0,0,0,0,0,0,0,0,-4.7592,-4.7639,-4.8062,-4.8076,-4.8091,-4.8391,-4.8312,-4.8676,-4.8497,-4.8344,-4.8485,-4.8479,-4.875,-4.8785,-4.8875,-4.9211,-4.923,-4.9024,-4.9037,-4.9047,-4.9053,0,0,0,0,0,0,0,-4.7567,-4.7622,-4.8149,-4.8068,-4.8086,-4.8109,-4.8154,-4.8381,-4.857,-4.8357,-4.8364,-4.8413,-4.8757,-4.8853,-4.8886,-4.9237,-4.9023,-4.9043,-4.9056,-4.9065,-4.9788,-4.9794,0,0,0,0,0,0,-4.7524,-4.76,-4.8136,-4.8162,-4.7824,-4.8126,-4.8177,-4.83,-4.8568,-4.8604,-4.8416,-4.8415,-4.8818,-4.886,-4.8901,-4.9195,-4.9047,-4.9067,-4.908,-4.9783,-4.979,-4.9796,0,0,0,0,0,0,-4.7508,-4.7571,-4.8119,-4.7883,-4.7955,-4.8144,-4.8282,-4.8311,-4.8408,-4.8612,-4.8647,-4.848,-4.8816,-4.887,-4.9118,-4.9211,-4.9077,-4.9097,-4.9776,-4.9785,-4.9793,-4.9784,0,0,0,0,0,0,-4.7486,-4.7564,-4.7655,-4.7884,-4.7967,-4.8326,-4.8288,-4.8323,-4.8445,-4.8447,-4.8681,-4.8715,-4.8816,-4.9084,-4.914,-4.9239,-4.9115,-4.9768,-4.978,-4.979,-4.9777,-4.9792,-4.9805,0,0,0,0,0,-4.746,-4.7637,-4.7659,-4.7723,-4.8083,-4.8332,-4.8379,-4.8489,-4.8452,-4.8545,-4.8677,-4.8708,-4.9192,-4.9109,-4.9172,-4.928,-4.9763,-4.9776,-4.9789,-4.9771,-4.9789,-4.9804,0,0,0,0,0,0,-4.7415,-4.7669,-4.7696,-4.7952,-4.8119,-4.8345,-4.8465,-4.8505,-4.8688,-4.8682,-4.8814,-4.8866,-4.9106,-4.9219,-4.9121,-4.9523,-4.9476,-4.9502,-4.944,-4.9459,-4.9472,-4.9439,-4.9133,0,0,0,0,0,-4.7434,-4.7613,-4.7826,-4.8031,-4.8114,-4.8275,-4.8387,-4.8458,-4.8637,-4.8709,-4.8859,-4.9033,-4.9225,-4.9349,-4.9537,-4.9795,-4.9847,-4.99,-4.9914,-4.9924,-4.9945,-5.0089,-5.0115,-4.984,-4.984,-4.984,0,0,-4.7477,-4.7638,-4.7743,-4.8026,-4.8164,-4.8347,-4.8334,-4.8529,-4.8666,-4.874,-4.8981,-4.9098,-4.9301,-4.9555,-4.9674,-4.9656,-5.0033,-4.9941,-4.9947,-4.9963,-5.0105,-5.0131,-5.0154,-4.9849,-4.9848,-4.9846,0,0,-4.7648,-4.7788,-4.7973,-4.8112,-4.832,-4.8426,-4.8471,-4.8691,-4.877,-4.9015,-4.9073,-4.9241,-4.9568,-4.971,-4.9826,-5.0051,-5.0086,-5.0109,-5.018,-5.0319,-5.0341,-5.036,-5.044,-5.0467,-5.013,-5.013,-5.013,0,-4.7675,-4.7951,-4.8064,-4.8256,-4.8379,-4.8453,-4.8642,-4.8772,-4.9032,-4.9116,-4.9092,-4.9504,-4.9647,-4.9934,-4.9988,-5.008,-5.0135,-5.0082,-5.0328,-5.0349,-5.0369,-5.0446,-5.0476,-5.0131,-5.0131,-5.0131,-5.0131,0,-4.7973,-4.8164,-4.829,-4.8536,-4.8674,-4.8864,-4.9008,-4.9134,-4.9193,-4.9302,-4.9551,-4.9725,-4.9948,-5.0023,-5.0083,-5.0319,-5.0301,-5.0301,-5.0256,-5.0395,-5.0469,-5.05,-5.0133,-5.0132,-5.0132,-5.0132,0,0,-4.8125,-4.8432,-4.8476,-4.8588,-4.8824,-4.8975,-4.917,-4.9387,-4.9492,-4.967,-4.9836,-5.0111,-5.0113,-5.0243,-5.0321,-5.0444,-5.061,-5.0429,-5.0436,-5.0455,-5.0879,-5.0876,-5.0908,-5.0635,-5.0641,-5.0646,-5.0862,0,-4.8322,-4.8668,-4.8776,-4.9066,-4.9244,-4.9317,-4.9486,-4.965,-4.9758,-4.9926,-5.0047,-5.0239,-5.0227,-5.0306,-5.0431,-5.0562,-5.0696,-5.0549,-5.0791,-5.0799,-5.0735,-5.0948,-5.0945,-5.1139,-5.0892,-5.0897,-5.09,0,-4.8598,-4.8777,-4.9084,-4.9297,-4.9376,-4.9525,-4.9733,-4.9893,-5.0081,-5.0151,-5.0297,-5.0365,-5.0572,-5.0516,-5.0804,-5.0701,-5.0807,-5.0887,-5.0898,-5.0923,-5.0856,-5.0976,-5.1205,-5.1232,-5.0948,-5.0944,-5.0941,0,-4.8675,-4.8994,-4.9219,-4.9313,-4.9568,-4.9671,-4.9783,-4.9966,-5.009,-5.0272,-5.0354,-5.0559,-5.0671,-5.0829,-5.0951,-5.0899,-5.1228,-5.1182,-5.1292,-5.1288,-5.1355,-5.1349,-5.1601,-5.1427,-5.1427,-5.1426,-5.1426,0,-4.8883,-4.9067,-4.9256,-4.9394,-4.9603,-4.9728,-4.9932,-5.0048,-5.021,-5.0373,-5.0451,-5.0602,-5.0755,-5.0927,-5.1025,-5.1247,-5.1298,-5.1361,-5.1384,-5.1353,-5.1344,-5.1422,-5.1411,-5.1434,-5.1432,-5.1431,-5.1429,0,-4.9003,-4.9137,-4.9386,-4.9607,-4.9667,-4.9811,-5.0001,-5.0139,-5.025,-5.0455,-5.051,-5.0686,-5.0893,-5.103,-5.1296,-5.1361,-5.1603,-5.1624,-5.1538,-5.1549,-5.165,-5.1637,-5.1959,-5.2007,-5.1802,-5.1804,-5.1805,0,-4.9124,-4.9267,-4.9503,-4.9617,-4.9728,-4.991,-5.0036,-5.0165,-5.0294,-5.0519,-5.063,-5.0841,-5.1017,-5.1344,-5.1497,-5.17,-5.1726,-5.1825,-5.1757,-5.172,-5.1725,-5.1714,-5.1729,-5.1834,-5.1836,-5.1837,-5.1838,0,-4.9326,-4.9385,-4.9563,-4.9764,-4.9912,-5.0078,-5.0244,-5.0333,-5.0491,-5.0632,-5.0843,-5.0979,-5.1249,-5.1459,-5.1676,-5.1794,-5.1843,-5.1859,-5.1895,-5.1862,-5.1805,-5.1836,-5.1565,-5.185,-5.1849,-5.1848,-5.1848,-5.1847,-4.945,-4.958,-4.9765,-4.9961,-5.0099,-5.0253,-5.0392,-5.0521,-5.0698,-5.0926,-5.0993,-5.1213,-5.14,-5.1696,-5.1817,-5.1993,-5.1983,-5.2035,-5.2048,-5.2058,-5.2057,-5.1779,-5.2033,-5.2033,-5.2033,-5.2033,-5.2033,0,-4.9653,-4.9776,-4.9955,-5.0183,-5.0338,-5.037,-5.0556,-5.0683,-5.0874,-5.1043,-5.1214,-5.1457,-5.1661,-5.183,-5.204,-5.2148,-5.2176,-5.2199,-5.2191,-5.2217,-5.2055,-5.2002,-5.2172,-5.2172,-5.2172,-5.2172,-5.2172,-5.2172,-4.9776,-4.9998,-5.008,-5.0371,-5.0495,-5.0709,-5.0812,-5.0954,-5.1089,-5.1356,-5.1525,-5.1633,-5.1803,-5.2027,-5.2215,-5.226,-5.2333,-5.235,-5.2399,-5.2244,-5.2228,-5.2213,-5.2164,-5.2366,-5.2366,-5.2547,-5.2549,-5.255]},{"header":{"parameterUnit":"m.s-1","parameterCategory":1,"la1":30.2991,"la2":30.254,"lo1":-89.0895,"lo2":-89.0444,"dy":0.0017,"dx":0.0017,"nx":28,"ny":28,"refTime":"2023-10-05T09:00:00:Z","depth":0,"parameterNumber":3,"parameterNumberName":"V-component_of_WINDS"},"data":[0,0,0,0,0,0,0,0,0,0,0,0,0,0,0,0,0,0,0,0,0,0,0,0,0,0,0,0,0,0,0,0,0,0,0,0,0,0,0,0,0,0,0,0,0,0,0,0,0,0,0,0,0,0,0,0,0,0,2.0031,2.0034,0,2.0264,2.0267,2.0269,2.0391,2.0392,2.0392,2.0392,2.0619,2.0625,2.0631,0,0,0,0,0,0,0,0,0,0,0,0,0,1.9683,1.9688,2.0031,2.0034,2.0037,2.0264,2.0267,2.027,2.0391,2.0392,2.0392,2.0392,2.0618,2.0624,2.0631,0,0,0,0,0,0,0,0,0,0,0,0,0,1.9866,1.969,2.0031,2.0125,2.0136,2.0263,2.0267,2.0271,2.0391,2.0392,2.0392,2.0392,2.0615,2.0624,2.0632,2.068,0,0,2.0659,2.0663,0,0,0,0,0,0,0,0,1.9856,1.9879,2.0108,2.0119,2.0131,2.0299,2.0228,2.0408,2.0391,2.0294,2.0392,2.0392,2.0512,2.0529,2.0572,2.0691,2.07,2.066,2.0665,2.0669,2.0672,0,0,0,0,0,0,0,1.9843,1.9869,2.0123,2.0111,2.0125,2.0153,2.0179,2.0262,2.0398,2.0302,2.0312,2.0338,2.0518,2.0563,2.0578,2.0704,2.066,2.0668,2.0673,2.0676,2.0874,2.0874,0,0,0,0,0,0,1.9816,1.9858,2.0116,2.013,1.9992,2.0159,2.0189,2.0245,2.0397,2.0421,2.0338,2.0343,2.0548,2.0568,2.0586,2.0654,2.0669,2.0677,2.0682,2.0874,2.0874,2.0874,0,0,0,0,0,0,1.9808,1.9838,2.0106,1.9997,2.0033,2.0165,2.0227,2.0249,2.0295,2.0424,2.0448,2.036,2.0549,2.0574,2.0657,2.0664,2.0681,2.0689,2.0874,2.0874,2.0874,2.0788,0,0,0,0,0,0,1.9798,1.9834,1.9856,1.9997,2.0039,2.0175,2.0227,2.0253,2.0311,2.032,2.0451,2.0473,2.0551,2.0643,2.0666,2.0676,2.0696,2.0874,2.0874,2.0874,2.0791,2.0785,2.0781,0,0,0,0,0,1.9785,1.982,1.9856,1.9887,2.0069,2.0176,2.0199,2.0292,2.0311,2.0332,2.0416,2.0469,2.0659,2.0651,2.0677,2.069,2.0874,2.0874,2.0874,2.0794,2.0787,2.0781,0,0,0,0,0,0,1.9672,1.984,1.9882,1.9964,2.0055,2.0196,2.0226,2.0281,2.0366,2.037,2.0478,2.0507,2.058,2.0643,2.0631,2.0745,2.0772,2.0777,2.0701,2.0696,2.0691,2.0674,2.0703,0,0,0,0,0,1.9658,1.9734,1.9874,1.9933,1.9977,2.0093,2.0143,2.0207,2.0304,2.0342,2.0432,2.0521,2.0602,2.0652,2.0732,2.08,2.0831,2.0822,2.0817,2.0812,2.0815,2.0857,2.0855,2.0875,2.0875,2.0875,0,0,1.9627,1.9728,1.9769,1.9913,1.9991,2.0065,2.0125,2.02,2.0256,2.0352,2.0439,2.0506,2.0613,2.0689,2.0727,2.0744,2.0817,2.0812,2.0807,2.0813,2.0857,2.0855,2.0853,2.0875,2.0875,2.0875,0,0,1.961,1.9693,1.9753,1.9831,1.995,2.0028,2.0041,2.0175,2.0225,2.0314,2.0389,2.0454,2.0589,2.0663,2.0718,2.073,2.0782,2.0752,2.0725,2.0764,2.0763,2.0762,2.0768,2.0768,2.0755,2.0755,2.0755,0,1.9556,1.9674,1.9775,1.9849,1.991,2.0004,2.0064,2.0133,2.027,2.0309,2.0327,2.0501,2.0579,2.0675,2.0678,2.0719,2.0737,2.0739,2.0755,2.0756,2.0756,2.0763,2.0764,2.0751,2.0751,2.0752,2.0752,0,1.9603,1.9683,1.9716,1.9852,1.9916,1.9981,2.009,2.0143,2.02,2.0275,2.0363,2.0461,2.0564,2.0591,2.0646,2.0694,2.0702,2.0735,2.0765,2.0749,2.0757,2.076,2.0745,2.0746,2.0748,2.0749,0,0,1.9522,1.9715,1.9725,1.9789,1.9927,1.999,2.0058,2.0163,2.0207,2.0297,2.0357,2.047,2.0504,2.0566,2.063,2.0665,2.067,2.0695,2.0699,2.0689,2.073,2.0705,2.0706,2.0704,2.0705,2.0706,2.0722,0,1.9526,1.966,1.9753,1.9848,1.9924,2.0015,2.0075,2.0165,2.0236,2.0308,2.0385,2.0465,2.0502,2.0541,2.0579,2.0661,2.068,2.0661,2.076,2.0762,2.0733,2.071,2.0684,2.0694,2.0725,2.0726,2.0726,0,1.9549,1.9643,1.9747,1.9879,1.9914,1.9967,2.0072,2.014,2.0243,2.0292,2.0362,2.0429,2.0503,2.0525,2.0628,2.0614,2.0659,2.0705,2.0708,2.0722,2.0744,2.0725,2.07,2.0702,2.0732,2.0731,2.0731,0,1.9483,1.9633,1.9716,1.9767,1.9923,1.9958,2.0023,2.0127,2.0185,2.0274,2.0313,2.0407,2.0459,2.053,2.062,2.0627,2.0714,2.0743,2.0756,2.0754,2.0771,2.0769,2.0754,2.0797,2.0797,2.0797,2.0797,0,1.9479,1.9539,1.9689,1.974,1.981,1.9915,1.998,2.0053,2.0144,2.0209,2.0291,2.0349,2.0464,2.0535,2.0604,2.068,2.0701,2.0742,2.0761,2.0737,2.0732,2.0769,2.0771,2.0797,2.0797,2.0797,2.0797,0,1.9417,1.952,1.9616,1.9757,1.9793,1.9839,1.9958,2.0009,2.0085,2.0166,2.0191,2.0309,2.0397,2.0494,2.0612,2.0659,2.0731,2.0756,2.0698,2.0709,2.0717,2.0715,2.0727,2.0734,2.0769,2.0769,2.0768,0,1.9409,1.9459,1.9606,1.9657,1.9722,1.9803,1.9864,1.9967,2.0026,2.0148,2.0184,2.028,2.0362,2.0498,2.0592,2.0684,2.0712,2.071,2.0726,2.0701,2.0714,2.0711,2.0717,2.0705,2.0704,2.0704,2.0703,0,1.9385,1.9434,1.952,1.9624,1.9694,1.978,1.9868,1.9904,2.0025,2.0087,2.0181,2.0245,2.0368,2.0462,2.0565,2.0629,2.0686,2.0697,2.0705,2.0682,2.0647,2.0668,2.0686,2.0697,2.0697,2.0698,2.0698,2.0698,1.9351,1.94,1.9513,1.9606,1.9684,1.9765,1.9822,1.9906,1.9987,2.0099,2.0154,2.0248,2.0349,2.0494,2.0557,2.0629,2.0647,2.0658,2.0661,2.0663,2.0657,2.0635,2.0648,2.0648,2.0648,2.0649,2.0649,0,1.9333,1.941,1.9495,1.9619,1.9691,1.9742,1.9842,1.9899,1.9981,2.0073,2.0153,2.026,2.0351,2.0453,2.055,2.0588,2.0617,2.061,2.0609,2.0623,2.0635,2.062,2.0586,2.0586,2.0586,2.0586,2.0586,2.0586,1.9332,1.9419,1.9481,1.9606,1.9682,1.9778,1.9831,1.9905,1.998,2.0097,2.0175,2.0242,2.0338,2.0442,2.0527,2.0554,2.0586,2.0573,2.0607,2.0617,2.0622,2.0627,2.0613,2.0578,2.0578,2.059,2.059,2.059]}]]